Flag for U.S.A. Weather past 2 weeks in Mansfield, Texas, U.S.A.

Now
83 °F

Sunny.


Feels Like: 86 °F
Forecast: 76 / 93 °F
Wind: 5 mph from South

Location: Burleson-Rendon

Current Time: Jul 3, 2015 at 9:01:51 PM

Latest Report: Jul 3, 2015 at 8:15 PM


Visibility: 4 mi

Pressure: 29.91 "Hg

Humidity: 62%

Dew point: 68 °F

Location of MansfieldLocation

Historic Weather in Mansfield — Graph

°F

Mansfield temperature yesterday

Maximum temperature yesterday: 93 °F (at 3:46 PM)
Minimum temperature yesterday: 75 °F (at 7:54 AM)
Average temperature yesterday: 85 °F

Past Weeks' High & Low Weather Summary

 TemperatureHumidityPressure
High97 °F (Jun 29, 4:48 PM)95% (Jun 23, 6:15 AM)30.20 "Hg (Jun 23, 6:15 AM)
Low65 °F (Jun 28, 4:55 AM)34% (Jun 28, 4:49 PM)29.90 "Hg (Jul 2, 8:15 PM)
Average79 °F73%30.03 "Hg
* Reported Jun 18 8:15 PM — Jul 3 6:53 PM, Mansfield, Weather by CustomWeather, © 2015

Note: Actual official high and low records may vary slightly from our data, if they occured in-between our weather recording intervals... More about our weather records

Advertising

Mansfield weather history for previous 24 hours

 ConditionsComfort  
Time TempWeatherWind HumidityBarometerVisibility
6:53 PM
Fri, Jul 3
88 °FSunny.5 mph52%29.92 "Hg5 mi
5:48 PM91 °FSunny.12 mph44%29.93 "Hg5 mi
4:48 PM90 °FScattered clouds.9 mph46%29.95 "Hg7 mi
3:46 PM91 °FScattered clouds.13 mph46%29.96 "Hg7 mi
2:51 PM93 °FScattered clouds.9 mph44%29.97 "Hg7 mi
1:49 PM88 °FSunny.8 mph55%29.98 "Hg7 mi
12:48 PM88 °FPassing clouds.15 mph55%30.00 "Hg7 mi
11:48 AM88 °FPassing clouds.14 mph59%30.02 "Hg7 mi
10:46 AM84 °FScattered clouds.10 mph66%30.01 "Hg7 mi
9:47 AM82 °FPassing clouds.16 mph70%30.01 "Hg7 mi
8:46 AM79 °FSunny.9 mph79%30.00 "Hg7 mi
7:50 AM79 °FScattered clouds.8 mph79%29.99 "Hg5 mi
6:50 AM77 °FPassing clouds.7 mph83%29.97 "Hg5 mi
6:35 AM77 °FPassing clouds.7 mph83%29.97 "Hg7 mi
6:15 AM77 °FPassing clouds.12 mph82%29.97 "Hg7 mi
5:55 AM77 °FPartly cloudy.8 mph83%29.96 "Hg7 mi
5:35 AM77 °FPartly cloudy.6 mph82%29.97 "Hg7 mi
5:15 AM78 °FPartly cloudy.10 mph81%29.96 "Hg7 mi
4:55 AM78 °FPassing clouds.10 mph80%29.96 "Hg7 mi
4:15 AM79 °FOvercast.12 mph77%29.96 "Hg7 mi
3:55 AM79 °FPassing clouds.13 mph77%29.96 "Hg7 mi
3:35 AM79 °FPassing clouds.7 mph76%29.96 "Hg7 mi
3:15 AM79 °FClear.13 mph74%29.95 "Hg7 mi
2:55 AM80 °FClear.14 mph72%29.96 "Hg10 mi
2:35 AM80 °FClear.13 mph71%29.97 "Hg10 mi
2:15 AM80 °FClear.13 mph69%29.97 "Hg10 mi
1:55 AM81 °FClear.14 mph66%29.97 "Hg10 mi
1:15 AM81 °FClear.14 mph66%29.96 "Hg10 mi
12:55 AM81 °FClear.12 mph68%29.97 "Hg10 mi
12:35 AM82 °FClear.10 mph67%29.96 "Hg10 mi
12:15 AM82 °FClear.13 mph67%29.95 "Hg10 mi
11:55 PM
Thu, Jul 2
82 °FClear.13 mph67%29.96 "Hg7 mi
11:15 PM82 °FClear.12 mph67%29.95 "Hg7 mi
10:55 PM82 °FClear.12 mph67%29.95 "Hg10 mi
10:15 PM82 °FClear.10 mph66%29.93 "Hg7 mi
9:55 PM82 °FClear.10 mph65%29.93 "Hg7 mi
9:35 PM83 °FSunny.9 mph63%29.94 "Hg7 mi
9:15 PM83 °FSunny.7 mph63%29.92 "Hg7 mi
Weather by CustomWeather, © 2015

See weather overviewHow to use our weather pages